Regional Weather Roundup
Issued by NWS Cleveland, OH

Home | Current Version | Previous Version | Graphics & Text | Print | Product List | Glossary On
Versions: 1 2 3 4 5 6 7 8 9 10 11 12 13 14 15 16 17 18 19 20 21 22 23 24 25 26 27 28 29 30 31 32 33 34 35 36 37 38 39 40 41 42 43 44 45 46 47 48 49 50
000
ASUS41 KCLE 220610
RWRCLE
OHIO REGIONAL WEATHER ROUNDUP
NATIONAL WEATHER SERVICE CLEVELAND, OH
200 AM EDT THU JUN 22 2017

NOTE: "FAIR" INDICATES FEW OR NO CLOUDS BELOW 12,000 FEET WITH NO
SIGNIFICANT WEATHER AND/OR OBSTRUCTIONS TO VISIBILITY.

OHZ001>008-015>018-024>027-034-035-043-044-220700-
   NORTHWEST OHIO

CITY           SKY/WX    TMP DP  RH WIND       PRES   REMARKS
DEFIANCE       MOCLDY    66  51  58 SE6       29.96F
FINDLAY        CLOUDY    69  51  52 SE5       29.96F
TOLEDO EXPRESS MOCLDY    64  54  69 SE3       29.96F
TOLEDO EXEC    CLEAR     64  54  69 SE6       29.97F
LIMA           MOCLDY    67  61  81 CALM      29.97F
$$

OHZ009>014-019>023-028>033-038-089-220700-
   NORTHEAST OHIO

CITY           SKY/WX    TMP DP  RH WIND       PRES   REMARKS
CLE-HOPKINS    MOCLDY    64  52  64 SE3       30.01S
CLE-LAKEFRONT  PTCLDY    65  48  54 SE7       29.98S
CUY CO. ARPT   NOT AVBL
LORAIN-ELYRIA  CLOUDY    62  51  67 CALM      30.00F
ASHTABULA      CLEAR     54  53  97 CALM      30.02S
AKRON-CANTON   CLOUDY    64  55  72 E3        30.01S
WOOSTER        CLOUDY    65  55  70 E3        30.00F
MANSFIELD      CLOUDY    67  56  67 SE6       30.00F
YOUNGSTOWN     PTCLDY    57  52  83 E6        30.01S
$$

OHZ042-051>053-060>062-070>072-077>081-220700-
  SOUTHWEST OHIO

CITY           SKY/WX    TMP DP  RH WIND       PRES   REMARKS
CINC-COVINGTON MOCLDY    73  67  81 S6        30.01R
CINC-LUNKEN    MOCLDY    73  68  84 SW6       30.00S
HAMILTON       MOCLDY    72  70  93 CALM      30.00S
DAYTON         PTCLDY    73  68  84 SW8       30.00S
WRIGHT-PAT AFB CLOUDY    74  72  93 SW8       29.98S
DAYTON GENERAL PTCLDY    76  67  73 SW9       29.99S
WILMINGTON     MOCLDY    74  68  81 SW8       30.00S
$$

OHZ036-037-039>041-045>050-054>059-063>069-073>076-082>088-220700-
  CENTRAL AND SOUTHEAST OHIO

CITY           SKY/WX    TMP DP  RH WIND       PRES   REMARKS
COLUMBUS       CLOUDY    76  69  79 SW6       29.97S
OSU AIRPORT    CLOUDY    73  69  87 W3        29.98R
BOLTON FIELD   NOT AVBL
RICKENBACK AFB CLOUDY    73  69  87 SW3       29.98S
NEWARK         CLEAR     70  67  90 CALM      29.98R
MARION         PTCLDY    69  60  73 E3        29.99S
LANCASTER      PTCLDY    73  68  84 SW5       29.99S
ZANESVILLE     PTCLDY    69  67  93 SE3       29.98F
NEW PHILLY     NOT AVBL
$$




USA.gov is the U.S. government's official web portal to all federal, state and local government web resources and services.